カタログに戻る

COSMOS 1948

GLONASS

運用中ナビゲーションMEO
NORAD 19165·PAYLOAD·🇷🇺 Russia

打ち上げ May 21, 1988 から Baikonur Cosmodrome

Loading…

次のパス (今後24時間)

TLE

最新Source: Space-Track

元期: Sep 13, 2026, 12:04 UTC

1 19165U 88043C   26256.50338911 -.00000009  00000-0  00000-0 0  9996
2 19165  65.0117  70.3128 0004045 314.6703  22.0207  2.13102771297883

AllMySatでCOSMOS 1948をリアルタイム追跡

Download on the App Store